Theta_e
296 296 295 295 296 296 297 297 298 298 298 298 297 297 298 298 297 296 296 296 295 295 295 294 294 294 294 293 292 292 292 291 291 291 291 291 291 290 290 290 290 290 290 290 289 289 288 288 288 287 287 287 286 285 285 285 285 284 284 285 284 284
297 297 296 295 295 295 296 297 297 297 297 297 297 297 298 297 296 295 295 296 295 294 294 294 293 294 293 293 292 291 291 291 291 290 290 290 290 290 289 289 289 289 289 288 288 287 286 286 286 286 286 286 285 285 285 284 285 284 283 283 283 283
297 297 297 296 295 296 296 296 296 296 297 296 296 295 296 296 295 295 295 295 295 294 293 293 293 293 293 292 292 291 291 291 290 290 290 290 290 289 289 288 288 288 287 287 287 286 285 285 285 285 285 286 285 285 285 284 284 283 283 283 282 282
295 295 295 295 294 294 294 295 296 295 295 296 296 295 295 295 294 294 295 295 295 294 293 293 292 293 293 291 291 290 290 289 289 289 289 288 289 289 288 288 288 287 287 286 286 286 285 285 285 285 285 285 284 284 284 284 283 283 282 282 281 281
294 293 292 292 293 293 293 294 294 295 295 295 295 294 294 295 295 295 295 294 294 293 293 292 292 292 292 291 291 290 291 290 290 288 287 287 287 288 288 287 287 287 286 285 286 285 285 285 285 285 285 285 284 283 283 283 283 282 281 281 281 281
292 291 290 290 291 291 292 293 294 294 294 294 294 293 294 294 294 294 294 294 293 293 292 291 291 290 290 289 290 289 290 289 289 288 286 286 286 286 286 286 286 285 285 285 285 285 285 284 284 285 285 284 284 283 282 283 283 283 282 282 281 281
290 290 290 290 291 291 291 292 293 293 293 293 292 293 293 293 294 294 293 293 292 291 290 290 290 290 289 289 289 289 289 288 287 287 286 285 285 285 286 285 286 285 285 285 284 284 284 284 284 284 284 284 284 283 282 282 283 283 282 282 281 281
289 289 289 289 290 290 291 292 292 292 292 292 292 292 292 293 293 293 292 292 291 290 290 291 291 290 288 288 288 289 288 287 287 286 285 285 284 284 285 285 285 285 285 284 284 284 284 284 284 284 284 283 283 283 283 283 282 282 282 281 281 281
287 287 288 289 289 290 290 290 291 291 291 291 291 292 292 292 292 291 291 291 290 289 290 289 289 288 288 288 288 288 287 286 286 286 284 284 284 284 284 284 284 284 284 284 284 284 284 284 284 283 283 283 283 283 282 282 282 282 281 281 281 281
287 287 287 287 288 289 289 290 290 290 290 289 290 291 290 291 290 291 290 291 290 290 289 289 289 288 288 288 288 288 287 287 286 284 284 284 283 283 283 283 283 283 284 284 283 284 284 283 283 283 283 283 282 282 281 281 281 281 281 281 281 281
287 286 286 287 287 287 288 288 288 289 289 289 289 290 290 290 290 289 289 289 289 289 288 288 288 288 288 287 287 287 286 286 284 284 283 283 283 284 284 283 283 283 283 283 283 282 283 282 282 282 282 282 282 282 281 281 281 280 280 280 280 280
287 286 286 286 286 287 287 287 287 287 288 288 288 288 289 289 289 289 288 288 288 288 288 288 287 287 287 286 286 286 285 283 283 282 282 282 283 283 283 283 283 283 283 283 282 282 282 282 282 282 283 282 281 281 281 281 280 280 280 279 279 279
286 286 286 286 286 286 286 286 287 287 287 287 287 287 288 288 288 288 288 288 289 288 287 286 286 286 285 285 285 284 283 283 282 282 282 282 282 282 282 282 282 283 283 283 283 282 282 282 281 283 284 283 283 281 280 280 280 280 279 279 279 278
286 285 285 286 286 286 286 286 286 286 286 286 286 287 287 287 287 286 287 288 288 287 286 285 285 285 284 284 283 283 282 282 282 282 282 281 282 282 282 282 282 283 283 283 283 282 282 281 282 284 284 284 283 282 281 280 280 279 279 279 279 278
287 286 286 286 286 286 286 286 286 285 286 285 286 286 286 286 286 286 286 287 287 286 286 285 285 284 284 283 283 283 282 282 282 281 281 281 281 281 281 281 282 282 282 282 282 282 282 281 283 284 284 284 284 283 281 280 280 279 279 279 278 278
287 287 287 287 287 287 286 287 286 286 287 286 286 286 286 286 286 286 286 286 286 286 285 285 284 284 283 283 283 282 281 281 281 281 281 281 281 281 281 281 281 281 281 281 281 281 281 281 283 284 284 284 284 283 281 280 279 279 279 278 278 278
287 287 286 287 287 287 286 286 287 287 286 286 285 286 285 285 285 286 286 285 285 286 285 284 284 283 283 283 282 282 281 281 281 281 281 281 281 281 281 281 281 281 281 281 281 281 281 280 283 284 285 284 284 284 282 279 278 278 278 278 278 278
288 287 287 288 287 287 286 286 286 286 285 286 285 285 285 285 285 285 286 284 284 285 285 284 284 283 283 282 282 281 281 281 281 280 281 281 282 282 282 282 282 281 281 281 281 281 280 280 283 284 285 285 285 284 281 279 278 278 278 278 278 278
289 288 288 288 287 287 286 286 286 285 285 284 284 285 285 285 284 285 285 285 284 284 284 284 284 283 282 282 282 281 280 280 281 281 282 281 281 281 281 281 281 281 281 281 280 280 280 280 282 284 284 285 285 284 281 279 278 278 278 277 278 277
288 289 288 288 287 287 287 286 285 285 284 283 284 284 284 284 284 284 285 285 285 284 284 284 284 283 282 282 281 281 281 281 281 281 282 281 281 280 281 281 281 281 281 281 280 280 280 279 281 284 284 285 285 284 281 279 278 277 278 277 278 277
287 287 287 288 286 287 287 286 285 284 283 283 283 283 283 284 284 284 285 285 286 285 285 284 284 284 283 281 282 282 281 281 281 282 282 282 281 281 281 281 280 280 280 280 280 281 280 279 280 283 284 285 285 284 282 279 278 277 277 277 277 277
286 285 286 286 287 287 287 286 285 284 283 283 283 283 283 284 284 285 286 286 286 286 285 285 284 283 282 281 282 282 282 282 281 281 281 281 281 281 281 280 280 279 279 279 279 279 279 279 279 282 284 285 285 285 283 281 278 277 277 277 276 276
286 286 286 286 287 287 287 286 285 284 284 283 283 282 283 284 285 285 285 286 286 285 284 284 284 283 283 282 282 282 282 282 281 281 281 281 281 281 280 280 280 279 278 278 279 279 279 278 278 280 283 284 285 285 284 281 279 279 278 277 277 276
286 286 286 286 286 286 287 285 284 284 284 283 283 283 284 285 285 285 285 285 285 285 285 284 284 284 283 283 282 281 281 281 282 281 281 281 280 279 279 279 279 278 278 278 278 278 278 279 279 279 282 284 284 285 285 283 281 280 278 277 276 276
285 285 285 286 286 285 286 285 284 284 284 284 284 285 285 285 286 285 285 284 284 284 284 284 283 282 282 282 282 282 281 281 281 281 281 280 280 279 278 278 278 277 277 277 277 278 278 278 278 279 280 282 284 285 285 285 282 282 280 278 276 276
286 286 285 285 285 285 285 285 284 284 284 284 286 286 286 285 285 285 285 285 284 282 282 282 283 283 282 282 282 282 282 281 281 281 280 280 279 279 278 278 277 277 277 276 276 277 277 277 277 278 279 280 283 284 285 285 284 282 280 279 278 277
286 286 285 285 284 285 285 285 284 283 283 285 286 285 285 285 285 285 284 284 284 283 283 283 283 283 282 282 282 281 281 281 281 280 280 280 279 278 278 278 277 277 277 276 276 276 276 277 277 277 278 279 280 283 284 285 285 283 282 279 279 278
286 285 285 284 284 284 284 284 285 283 284 286 286 286 285 285 284 284 284 284 284 283 284 283 283 283 283 282 282 282 282 281 280 280 279 279 278 278 278 278 277 277 277 276 277 276 276 277 277 276 277 278 278 279 282 283 284 284 283 281 280 280
285 284 284 284 284 284 284 284 284 285 286 285 286 286 285 284 284 283 283 284 284 284 283 283 282 282 282 282 282 282 282 282 281 280 280 279 279 278 278 278 278 277 277 277 277 278 277 277 276 276 276 276 276 277 278 280 282 284 284 282 281 280
285 285 284 284 285 284 284 284 284 285 285 285 285 285 285 283 283 283 283 283 283 283 283 282 280 281 281 282 281 281 281 281 281 281 280 280 279 279 279 279 278 278 278 278 278 278 277 277 276 276 276 276 276 276 276 277 279 281 283 282 280 279
285 285 285 285 286 284 283 283 284 284 284 285 285 284 283 283 282 283 283 283 283 282 283 283 282 282 281 281 281 281 282 281 281 281 281 282 282 281 280 280 280 280 280 280 279 278 277 277 276 277 278 277 278 276 275 276 277 279 281 283 283 280
285 285 285 286 287 285 284 283 284 284 284 284 284 284 283 282 282 282 282 282 282 282 282 282 282 282 282 281 281 281 281 280 283 282 281 281 282 283 283 282 281 281 281 280 280 280 278 278 279 281 280 280 279 279 279 278 278 279 280 282 284 281
284 284 285 286 286 285 284 283 284 284 284 284 284 283 283 282 282 282 282 282 282 282 281 281 281 281 281 281 281 281 280 280 281 283 283 283 283 282 283 283 283 283 283 281 280 281 283 282 282 282 281 280 280 280 280 279 279 280 280 281 282 281
282 283 284 286 286 285 285 284 284 284 283 283 283 283 283 282 282 282 282 282 282 281 281 281 281 281 280 281 281 280 280 280 279 279 282 283 283 283 283 283 283 283 283 283 283 282 281 282 283 282 282 281 281 280 280 280 280 280 280 281 282 280
283 284 284 285 285 285 285 284 285 284 283 283 283 282 282 282 281 282 282 282 282 281 281 281 281 280 280 279 279 279 279 279 279 278 278 280 282 282 282 283 283 283 284 284 284 283 282 282 282 282 282 282 281 281 281 281 281 281 281 281 279 278
285 284 284 284 284 284 284 284 285 285 284 283 282 282 281 282 282 282 283 282 282 281 281 281 280 280 280 280 280 279 279 279 279 279 279 278 278 279 280 282 282 283 283 283 283 283 282 282 282 282 282 282 281 281 281 281 280 281 281 280 277 277
285 284 283 282 283 283 283 283 284 285 284 283 282 281 281 281 282 282 282 280 280 282 281 281 281 281 280 280 280 279 279 279 279 279 279 279 278 277 277 277 279 281 282 282 282 283 283 282 282 282 282 282 282 282 282 281 279 278 278 278 278 278
284 284 284 282 282 282 282 283 284 284 284 283 282 281 281 281 281 282 283 283 281 282 282 281 281 281 280 280 280 280 280 279 279 279 279 279 279 278 278 278 279 279 280 281 281 282 282 282 282 282 282 282 282 282 282 278 277 277 277 277 278 277
Wind_Speed
9 9 11 12 13 14 14 14 14 13 14 16 17 20 21 21 17 16 15 16 10 8 11 11 10 9 9 10 10 11 10 13 12 11 8 7 9 10 11 11 9 8 7 7 8 8 8 8 8 8 7 6 7 7 7 7 7 7 7 6 6 6
11 11 10 10 12 12 12 13 13 16 16 16 16 17 18 18 18 18 19 18 14 11 10 9 9 10 10 11 12 12 13 12 12 12 11 11 10 10 11 9 11 11 11 9 9 8 8 9 8 9 9 8 7 7 7 7 7 8 8 7 5 4
10 10 9 8 9 11 11 12 15 16 15 16 17 19 20 21 19 19 15 15 16 14 15 13 10 11 9 11 12 12 12 11 11 11 12 11 11 11 11 10 10 9 8 9 8 9 8 9 9 8 8 8 8 7 8 9 8 9 7 7 7 6
10 9 8 8 9 11 13 13 13 15 16 16 16 16 19 20 19 18 17 16 17 16 14 14 10 13 11 12 11 11 12 11 10 11 11 12 11 12 12 13 10 10 10 9 10 10 9 9 9 9 8 8 9 8 5 8 8 9 8 8 8 7
8 8 10 11 12 12 13 14 14 15 17 17 15 18 21 21 19 17 17 16 16 15 14 13 11 12 14 13 11 12 13 12 14 9 9 9 10 10 11 11 11 11 10 9 10 10 10 10 9 9 9 9 10 10 8 7 9 10 10 9 9 8
7 8 10 10 11 12 14 14 14 14 15 16 16 21 21 19 17 14 14 15 15 13 13 14 11 15 14 14 12 12 12 11 11 12 8 8 8 10 8 9 10 9 9 10 10 10 10 10 9 9 9 10 10 10 11 10 9 9 9 10 10 10
9 9 9 9 9 10 12 14 14 14 15 16 19 19 19 17 16 16 15 15 16 13 12 13 14 16 15 14 12 13 12 11 11 11 9 8 8 8 10 9 10 10 10 10 11 11 10 10 10 10 10 8 8 9 9 9 8 8 9 9 9 9
7 8 8 7 7 8 10 12 14 13 13 17 17 17 17 17 15 15 15 15 17 13 14 17 16 16 13 15 12 13 13 11 12 13 10 9 9 8 9 11 9 9 11 10 11 11 11 11 11 11 11 11 10 9 9 9 9 8 9 9 9 10
9 9 9 8 7 8 9 11 13 13 13 16 16 16 17 16 15 15 15 16 13 11 12 11 12 12 13 14 12 12 12 12 12 12 10 9 9 11 11 10 9 7 9 10 10 11 11 11 11 11 11 11 11 11 10 9 10 10 8 9 10 9
10 10 8 7 7 8 8 9 11 13 14 15 14 15 13 10 10 11 12 15 15 12 12 12 11 11 13 12 12 12 12 13 11 9 8 9 10 12 12 11 10 9 8 9 9 9 10 11 11 11 12 11 11 11 11 11 10 10 9 9 9 9
9 9 8 7 8 9 9 9 10 12 12 12 12 11 10 9 12 11 11 14 14 10 8 8 7 9 11 12 12 12 13 13 10 10 10 10 10 10 11 10 11 11 10 9 9 10 9 10 10 10 11 12 11 10 11 11 10 10 10 9 9 9
10 9 8 9 9 10 10 9 9 10 11 10 10 11 10 12 14 14 13 12 11 9 10 11 10 10 10 11 13 13 11 10 10 10 10 11 11 10 11 12 12 12 12 12 11 10 9 9 6 8 12 10 9 10 8 8 9 9 9 10 10 10
9 9 9 10 10 11 10 9 9 9 10 10 11 11 11 11 13 12 10 10 9 11 11 11 10 9 11 11 9 10 11 11 10 11 11 11 11 12 12 12 13 12 12 13 13 13 10 9 8 15 16 15 15 10 9 9 9 9 9 10 10 10
9 10 10 11 11 12 10 9 10 9 10 10 10 10 10 11 7 8 9 12 10 10 12 11 11 10 10 10 10 11 10 10 11 11 11 11 12 12 11 12 13 12 12 11 12 12 10 8 11 20 19 18 18 13 10 9 9 9 9 9 9 9
9 10 10 10 11 11 11 11 10 11 10 10 12 9 10 11 9 11 10 9 10 10 11 11 12 11 10 11 11 11 11 11 12 11 11 13 11 10 12 12 12 12 12 11 12 11 9 8 16 20 20 19 19 16 11 8 8 9 9 9 10 10
7 8 10 10 11 11 10 12 11 12 11 10 11 12 13 12 11 11 11 9 10 10 11 11 11 11 11 10 11 12 11 11 12 11 10 10 10 11 12 12 13 12 12 11 11 10 9 9 16 21 20 19 19 18 13 8 9 9 9 9 10 9
7 8 10 10 11 10 10 11 11 11 11 12 13 14 12 13 12 12 13 10 10 11 11 11 11 11 11 11 11 11 11 12 11 11 11 11 12 14 14 14 14 12 12 11 10 9 9 8 20 21 21 20 21 20 15 8 8 8 8 9 10 10
9 9 9 9 10 11 11 10 10 11 11 12 12 13 13 14 13 13 13 10 10 11 11 10 11 11 11 12 11 12 12 11 11 12 11 11 10 10 10 10 10 11 12 12 11 10 10 9 21 21 22 22 21 22 11 9 9 9 9 9 9 9
7 8 8 9 11 11 11 11 10 10 10 11 12 12 13 14 13 14 14 12 11 11 12 12 11 10 11 12 13 13 12 11 13 11 10 11 11 11 11 11 11 10 11 11 11 11 10 9 19 23 23 23 23 19 10 10 9 9 9 9 9 8
5 7 9 10 11 11 11 13 11 11 10 11 12 13 13 14 15 14 14 14 14 13 12 12 12 11 11 12 14 13 11 11 10 12 10 13 12 12 11 10 9 9 11 12 13 12 11 10 18 24 23 24 25 19 11 10 9 9 9 8 9 8
6 8 9 10 11 11 12 12 13 12 10 11 12 13 14 14 15 16 15 15 13 12 13 12 12 11 12 11 13 11 12 13 12 10 10 11 9 9 9 8 9 9 8 9 11 12 12 10 16 25 24 25 25 19 10 10 9 10 9 9 9 10
6 8 10 11 12 12 12 12 13 15 13 13 12 14 16 16 15 14 14 13 13 12 12 12 13 12 12 11 11 10 10 10 10 11 11 10 9 9 9 9 9 10 9 8 10 10 12 10 11 18 24 24 24 24 12 9 10 12 12 11 10 10
7 9 10 10 11 12 12 12 13 14 15 15 14 15 14 14 13 13 13 14 15 14 13 13 13 13 12 11 12 11 11 11 11 10 11 11 9 9 8 10 10 9 8 9 10 10 11 10 11 15 25 25 25 27 21 10 13 12 11 11 10 10
7 7 7 8 11 12 13 13 13 13 14 14 16 16 13 13 14 13 13 15 16 14 12 13 13 13 12 12 12 12 10 9 10 10 11 9 9 9 9 8 7 8 7 7 8 9 11 11 13 12 22 25 26 27 30 14 14 13 10 10 10 11
7 8 9 8 10 11 12 15 15 14 14 15 15 14 14 13 13 15 14 13 13 12 12 10 11 9 8 8 9 9 10 9 9 8 8 10 8 9 8 8 7 7 7 6 7 9 10 11 12 16 16 25 26 27 29 27 11 17 9 9 9 11
6 7 8 8 10 11 12 14 14 14 15 16 12 11 13 15 16 15 14 14 13 8 8 8 10 9 9 12 11 10 10 10 9 9 9 9 9 9 10 8 9 8 8 9 10 10 10 11 11 14 19 18 27 26 28 30 20 19 10 9 8 8
9 7 8 8 11 11 11 12 13 12 15 13 11 11 12 12 12 13 14 15 14 13 12 11 11 13 13 12 14 13 10 10 11 11 10 9 10 10 10 10 10 11 10 10 10 10 10 11 11 11 15 19 23 27 27 27 28 21 20 13 10 9
6 7 9 9 11 11 11 12 12 13 14 11 12 13 13 12 11 11 11 11 10 10 11 13 12 13 13 13 11 12 11 13 13 12 11 11 11 10 10 10 10 10 10 10 10 9 9 10 10 11 12 15 18 19 25 25 26 24 23 17 7 12
7 9 9 10 11 11 11 12 12 12 9 11 12 12 11 11 13 12 11 10 8 9 11 12 10 9 10 12 9 9 10 9 11 11 11 12 12 12 12 11 11 10 10 10 10 10 9 9 9 10 9 10 11 12 14 16 17 21 19 14 11 12
8 9 10 10 11 11 11 12 13 12 10 9 9 8 10 12 13 13 11 12 10 10 11 11 12 11 9 9 10 10 10 10 10 12 13 14 15 14 14 12 12 13 12 12 11 9 8 9 10 10 11 12 12 10 12 12 12 12 12 10 10 12
9 10 10 10 9 10 10 11 11 10 11 8 8 11 12 11 13 12 10 12 9 10 9 11 11 12 11 10 9 9 10 10 11 11 10 9 9 11 11 11 11 10 10 10 11 11 10 9 10 14 14 13 17 17 13 13 14 12 13 12 13 10
10 9 11 11 9 9 9 11 11 9 9 7 9 12 14 13 10 10 11 10 11 10 10 10 10 11 11 11 12 11 10 14 17 12 10 10 15 18 16 12 12 11 9 9 8 11 12 12 11 10 18 21 23 25 22 18 15 17 11 11 18 11
11 9 10 9 5 7 9 10 10 10 10 10 9 11 11 10 10 10 10 10 10 12 12 11 11 10 10 10 11 11 10 9 11 14 15 16 16 19 21 20 17 14 18 14 11 13 18 15 6 15 20 22 23 24 23 23 22 22 22 20 15 13
8 10 13 11 8 11 8 10 10 10 9 11 12 12 12 13 12 11 12 13 11 13 12 10 10 9 10 10 9 10 10 11 10 10 14 18 17 18 20 22 22 21 20 20 17 10 9 16 16 17 20 22 23 23 24 24 24 24 24 24 23 15
11 11 10 8 7 8 7 9 9 9 11 13 13 13 14 15 14 11 9 10 10 11 13 11 10 10 11 10 11 10 11 11 12 11 10 12 16 17 18 20 21 21 20 19 20 21 15 12 13 17 19 22 23 24 24 24 25 25 26 25 18 15
9 10 10 9 11 11 9 10 9 11 13 13 13 14 15 15 16 15 11 10 11 11 11 11 11 12 12 12 11 11 11 12 11 12 10 9 9 10 12 18 22 22 22 21 20 20 17 14 17 18 20 21 23 24 24 23 19 25 27 24 15 15
9 8 11 12 11 10 10 12 12 11 11 12 14 14 14 14 14 10 12 15 12 9 11 11 11 11 10 10 11 11 10 11 9 10 9 11 12 12 13 13 14 20 25 19 19 21 22 19 19 20 20 21 22 23 24 23 14 15 16 17 15 14
9 10 9 8 8 9 10 13 10 8 10 12 13 14 15 13 14 11 10 9 12 10 9 10 10 10 11 11 11 11 10 10 9 10 11 9 8 9 9 9 10 10 17 26 21 19 21 22 21 21 22 21 23 24 25 15 14 13 14 15 15 15
Wind_Direction
239 224 220 218 217 212 209 206 201 200 203 202 199 206 206 201 195 191 190 190 183 173 180 166 167 172 165 160 152 155 162 175 176 174 164 147 158 158 163 160 156 159 147 147 146 148 144 142 144 144 139 136 131 138 136 140 140 138 138 139 137 135
251 244 227 219 216 217 214 206 197 200 200 198 199 208 212 202 195 191 190 188 184 167 165 169 167 171 167 161 157 158 169 174 175 172 167 171 165 166 160 159 166 164 159 156 150 143 141 146 148 149 147 147 146 147 146 152 147 140 138 137 131 130
252 243 243 239 230 219 212 204 201 202 197 197 195 200 203 202 198 193 190 185 186 166 172 172 167 171 166 160 161 160 163 164 168 173 170 162 174 162 164 162 167 163 149 143 146 147 148 150 149 150 149 152 150 149 146 148 150 143 140 139 136 136
254 253 254 258 253 239 222 210 206 201 198 196 193 197 206 203 198 191 190 189 187 171 170 169 163 176 169 169 169 171 173 169 163 160 159 166 165 166 165 168 164 161 155 150 152 152 153 152 150 151 153 148 147 144 143 150 149 144 140 142 145 148
253 257 257 257 255 251 238 218 205 202 197 193 194 199 203 203 199 190 186 186 187 170 170 162 163 170 177 173 175 177 180 178 181 165 149 155 158 165 169 165 161 159 155 152 155 156 154 154 152 155 157 153 153 153 155 154 154 151 152 154 155 153
261 258 253 247 242 242 236 221 207 198 194 193 195 202 201 198 195 187 184 185 184 167 158 160 158 171 177 179 183 178 178 174 175 173 155 147 152 162 152 152 156 149 150 157 157 154 151 153 154 156 158 157 158 156 158 159 160 158 158 156 153 155
264 259 256 251 250 245 234 219 204 195 191 194 200 200 197 192 187 183 184 183 181 175 163 160 162 174 179 182 181 178 174 173 173 174 159 149 155 155 152 153 157 160 163 162 161 155 155 159 158 159 157 155 154 152 153 159 159 157 156 155 154 156
266 265 261 259 254 245 231 220 213 196 190 197 197 195 190 187 181 180 180 181 180 174 172 182 180 180 173 177 176 175 172 171 175 176 173 163 151 149 155 158 160 163 165 162 158 156 157 161 164 164 163 162 160 158 157 158 158 155 154 156 157 161
259 263 265 262 258 244 232 219 210 200 195 195 191 188 182 179 173 174 178 179 175 160 173 177 178 167 167 174 172 167 165 170 174 175 165 163 158 159 159 159 154 155 158 157 156 161 162 161 165 167 167 165 165 165 162 159 160 161 157 157 161 165
260 259 253 248 241 231 221 212 201 194 191 184 180 179 174 172 166 171 170 179 182 176 172 184 179 165 168 169 170 171 170 169 167 160 154 159 157 163 165 162 160 155 157 160 160 163 164 166 169 170 169 169 168 165 166 163 162 160 159 159 161 165
254 250 238 229 224 214 204 194 193 189 179 173 172 171 165 162 173 170 168 177 179 167 158 156 162 171 169 165 168 170 169 171 156 149 156 159 160 167 166 159 158 158 164 165 167 168 169 172 176 175 174 170 165 163 161 161 160 161 161 160 163 170
251 242 229 219 210 202 192 182 175 172 168 167 165 166 169 170 179 177 177 175 173 162 158 170 176 178 169 167 172 173 161 147 149 152 155 162 166 163 163 162 166 171 174 173 174 173 174 182 184 166 160 151 151 151 147 152 159 161 162 162 166 172
245 236 224 215 206 196 183 174 171 168 167 162 163 165 166 169 180 180 172 170 170 172 164 162 167 171 172 170 157 148 152 155 152 156 160 163 167 167 165 167 173 180 179 176 175 181 186 184 177 160 167 160 150 148 153 158 162 166 165 169 171 173
237 229 221 214 207 195 179 171 170 167 167 161 162 165 164 172 167 162 168 177 164 170 167 162 163 169 171 164 156 156 152 152 155 160 163 166 168 172 168 173 180 180 177 177 181 183 184 182 158 172 173 168 164 159 160 161 163 166 171 175 175 173
234 229 221 214 208 197 181 174 169 173 170 163 168 147 159 176 171 178 177 172 170 173 169 164 166 167 170 168 159 157 157 160 162 163 169 174 173 165 173 180 179 182 180 178 179 182 177 175 169 177 174 172 170 163 158 168 166 172 177 177 178 175
227 228 222 213 207 196 182 182 178 178 173 164 166 164 171 175 175 177 176 167 174 173 174 171 168 169 171 164 159 161 161 157 166 169 168 167 167 173 180 183 184 184 183 181 180 176 174 173 172 177 175 175 173 171 171 170 171 176 178 178 180 180
212 223 217 211 202 191 183 189 183 177 174 171 170 174 173 177 180 181 183 174 172 176 176 174 173 173 173 168 166 162 162 163 165 170 174 175 179 182 185 184 185 186 182 180 178 175 172 176 172 178 177 176 177 177 177 170 173 177 181 183 186 184
205 206 212 207 199 186 179 182 186 181 175 172 172 176 174 176 181 186 185 176 172 178 178 177 175 176 172 169 168 166 166 170 171 172 174 177 182 186 182 183 184 182 182 181 176 171 174 169 173 179 179 181 182 179 179 180 179 184 184 186 186 184
202 192 194 199 201 190 176 179 182 184 176 175 178 178 181 183 185 189 191 187 179 177 178 181 180 176 172 173 172 173 171 167 178 176 175 178 185 183 184 182 184 181 178 175 178 180 178 168 177 182 183 183 183 180 186 184 184 186 186 189 184 187
191 180 184 193 200 201 187 176 175 182 178 179 181 185 187 188 190 190 192 195 189 181 179 183 184 181 179 178 180 176 173 173 179 180 176 180 184 183 183 181 178 181 184 183 184 183 176 172 179 184 186 187 187 185 183 180 182 185 187 187 186 187
192 177 179 188 194 197 197 181 166 178 183 186 190 190 193 195 194 193 193 194 189 181 181 180 181 184 187 183 182 181 174 178 178 176 169 179 179 181 180 181 177 177 182 186 187 179 181 178 180 187 190 190 190 188 184 177 183 186 191 188 189 192
167 181 183 191 193 188 193 193 189 185 186 192 192 199 202 201 199 196 194 193 193 187 184 181 183 182 183 175 179 182 177 173 167 165 166 175 177 180 183 177 184 183 189 182 188 186 195 183 180 190 193 193 194 193 188 181 185 196 194 191 188 187
191 196 194 187 185 182 186 192 198 197 192 191 197 204 205 202 199 197 194 192 191 191 185 183 187 181 181 181 180 174 175 169 163 162 169 176 180 182 181 181 186 186 186 185 192 191 195 192 182 188 194 196 197 197 195 192 196 195 189 190 184 189
197 198 193 188 176 180 182 187 201 205 202 197 200 203 200 197 198 195 194 196 195 192 184 183 184 181 177 177 173 170 161 163 170 175 174 178 181 179 177 173 179 184 184 180 182 193 198 195 190 183 196 200 200 201 201 202 199 190 181 183 194 196
197 201 196 186 182 179 187 187 197 207 209 213 207 188 189 195 197 194 193 192 193 193 186 177 164 162 151 152 157 165 179 174 172 171 168 176 171 173 172 177 179 181 188 188 192 199 202 198 196 195 195 202 204 205 207 210 197 187 181 187 193 198
192 194 194 188 187 190 189 192 196 200 209 218 210 196 187 183 187 193 199 203 200 170 162 168 178 179 174 183 178 176 176 175 173 175 183 183 180 180 183 186 183 189 193 193 199 202 202 201 197 198 199 201 206 209 211 213 203 187 192 191 200 193
188 188 189 194 192 192 199 199 201 199 207 203 189 189 186 187 188 188 189 189 188 182 181 181 185 187 190 188 186 187 181 173 173 185 185 177 184 184 185 187 184 192 195 195 198 196 195 195 195 194 195 197 208 212 214 215 213 200 194 199 208 195
188 183 194 197 198 199 200 204 204 205 209 191 187 182 181 184 188 192 193 190 188 182 179 187 190 193 193 190 190 191 185 181 181 184 180 183 188 187 186 188 185 190 189 194 193 194 192 191 187 193 190 196 206 214 218 217 218 214 206 203 185 194
196 202 197 202 199 202 204 205 210 214 199 195 188 185 182 180 184 191 194 196 192 187 190 192 191 189 190 194 191 191 190 186 184 185 186 186 188 189 192 193 187 188 192 195 195 195 187 185 187 189 185 184 196 204 211 217 222 220 214 202 201 188
200 198 196 208 201 198 203 206 212 205 195 186 181 179 180 186 190 191 189 188 184 188 187 193 188 185 189 190 188 190 192 193 190 194 196 192 191 187 191 190 189 192 191 194 193 188 187 192 195 192 188 186 187 186 199 210 214 212 211 197 193 199
202 206 198 214 194 188 198 207 210 203 199 184 178 182 187 193 194 194 187 186 182 189 180 187 182 190 190 187 189 203 201 190 191 199 204 203 193 194 187 185 197 195 193 188 187 180 191 197 197 204 193 188 189 193 193 196 202 202 209 203 185 192
216 211 210 220 194 184 197 205 209 202 194 177 183 186 191 190 185 191 195 191 192 190 183 192 189 188 189 186 190 194 202 210 207 202 202 204 207 210 212 201 202 192 182 190 201 191 193 197 210 177 183 194 195 198 197 199 197 205 205 204 191 170
220 226 231 228 193 191 201 203 203 200 194 191 186 190 191 181 184 192 196 193 199 193 185 186 190 188 193 192 192 194 194 196 212 215 215 216 209 208 211 212 216 204 208 205 210 211 219 224 159 171 186 191 195 195 198 199 200 202 206 204 204 195
217 219 226 223 198 207 201 207 205 195 186 188 194 195 194 190 191 193 197 196 198 194 193 191 188 178 184 191 187 191 191 197 200 211 218 217 213 208 208 211 213 212 209 210 212 203 203 214 207 181 182 188 191 194 196 198 198 201 202 205 203 208
211 213 219 218 209 209 202 204 208 186 190 194 195 191 195 198 201 201 196 195 191 190 192 194 189 189 189 186 184 190 192 196 200 202 205 212 218 216 213 215 216 216 215 212 211 211 208 192 189 187 186 186 191 192 196 198 199 200 202 201 205 212
217 209 217 222 220 215 210 214 211 195 195 189 190 193 200 201 205 208 202 190 185 186 191 195 192 191 195 194 192 193 192 199 199 203 196 184 188 213 227 225 222 219 217 217 212 208 204 182 184 188 187 187 188 192 194 196 199 203 203 201 205 207
228 223 220 220 218 217 217 223 222 201 188 185 186 192 201 205 207 208 213 206 196 191 194 192 193 193 193 192 192 192 192 199 197 196 193 193 193 198 206 207 215 218 216 216 215 213 208 199 189 192 193 191 189 191 193 192 196 204 210 209 212 211
229 231 226 218 220 220 225 234 226 189 184 184 185 192 200 204 206 205 207 200 197 197 197 195 196 194 193 194 196 197 198 198 194 196 204 204 203 204 205 212 208 205 208 214 218 213 209 204 194 192 194 196 194 192 186 193 202 204 206 209 210 214